FREGAT R/B, 40316

Orbit data source: Space-Track

FREGAT R/B, 40316 is space debris in MEO originally from a launch on Sun, 30 Nov 2014 UTC launched from the Plesetsk Missile And Space Complex (PKMTR). Debris objects in space refer to the collection of defunct objects orbiting the Earth. Examples of debris include non-operational satellites, rocket bodies, and fragments generated from explosions, collisions, or faulty payload assembly.

Loading next visibility...
FREGAT R/B details
Identifier
40316, 2014-075B
Orbit
MEO
Last TLE update1 day ago
Origin
Flag of CISLavochkin (CIS)
ManufacturerLavochkin
MissionSpacecraft
Bus & MotorFREGAT, Unknown motor
Mass1,000 kg wet, 1,000 kg dry
Launch date (UTC)
2014-11-30 (10 years ago)
Launch vehicleUnknown
Launch site
Plesetsk Missile And Space Complex (PKMTR)
Object type
Payload
Rocket body
Debris
Shape & HBRCyl, 2.66 m
Radar Cross Section6.468 m², Large (>1 m²)

Expand to show TLE details & history

TLE from 1 day ago
0 FREGAT R/B
1 40316U 14075B   24360.20322060  .00000095  00000-0  00000+0 0  9994
2 40316  63.5614 214.8094 0046210 134.9693 225.4861  2.08635757 76719
Epoch: 2024-12-25T04:52Z
Definitive object data (Epoch: 2024-12-25T04:52:38.259Z)
Latitude0.00003°
Longitude47.45504°
Altitude19,577.315 km
Speed3.913 km/s
True Right ascension14h 19m 15s
True Declination0° 00' 00"
Sunlit
Object was in daylight at TLE epoch
Visualization TLE readout
Latitude-46.87887°
Longitude-100.55602°
Altitude19,528.707 km
Speed3.921 km/s
Apparent Right ascension03h 26m 33s
Apparent Declination-50° 51' 14"
Sunlit
Object is in daylight
Visualization observer readout
Local Sidereal Time10:42:14
Azimuth232.185° WSW
Elevation-40.892°
Doppler factor1
Orbital elements
Apogee altitude19,611.851 km
Perigee altitude19,372.756 km
Semi-major axis25,870.44 km
Eccentricity0.004621
Inclination63.5614°
RAAN214.8094°
Arg. of periapsis134.9693°
True anomaly225.11003°
Mean anomaly225.4861°
Eccentric anomaly225.29791°
Mean motion0.5216 °/min
BSTARUnknown
Orbital period690.18 mins
Loading maneuver chart data...
Loading historical data...
Loading historical data...
Loading historical data...
Loading historical data...
Loading historical data...
Loading historical data...
Loading historical data...
Other satellites on launch #75 in the year 2014 (2014-11-30 UTC)

FREGAT R/B Visibility forecast

Observer location: undefined°, undefined

Span
Click to sort rows by Start time (UTC) header in descending order
Start Az.
Max El. time (UTC)
Max El. Az.
Max El.
End time (UTC)
End Az.
323 mins2024-12-26 14:27:54.639Z186.288° SSW2024-12-26 16:53:54.639Z293.516° NW44.932°2024-12-26 19:50:54.639Z63.697° ENE
69 mins2024-12-27 06:07:54.639Z331.109° NNW2024-12-27 06:41:54.639Z315.484° NNW12.926°2024-12-27 07:16:54.639Z298.803° NW
|